Dalaman, Turkey

7:07 AM +03 on May 30, 2017 (GMT +0300)
Dalaman

Weather History for LTBS - March, 2013

Change the Weather History Date:

Sunday, March 17, 2013

  Actual Average Record
Temperature  
Mean Temperature 50 °F -  
Max Temperature 60 °F 65 °F 71 °F (2002)
Min Temperature 40 °F 46 °F 32 °F (2003)
Degree Days  
Heating Degree Days 15    
Moisture  
Dew Point 36 °F    
Average Humidity 64    
Maximum Humidity 100    
Minimum Humidity 22    
Precipitation  
Precipitation 0.00 in - - ()
Sea Level Pressure  
Sea Level Pressure 29.99 in    
Wind  
Wind Speed 7 mph ()    
Max Wind Speed 17 mph    
Max Gust Speed -    
Visibility 6.2 miles    
Events      
Averages and records for this station are not official NWS values.
T = Trace of Precipitation, MM = Missing Value Source: Averaged Metar Reports

Daily Weather History Graph

Daily Weather History Graph

Search for Another Location

Airport or City:

Trip Planner

Search our weather history database for the weather conditions in past years. The results will help you decide how hot, cold, wet, or windy it might be!

Date:

Astronomy

Mar. 17, 2013 Rise Set
Actual Time 6:12 AM EET 6:13 PM EET
Civil Twilight 5:47 AM EET 6:39 PM EET
Nautical Twilight 5:17 AM EET 7:09 PM EET
Astronomical Twilight 4:46 AM EET 7:40 PM EET
Moon 9:19 AM EET (3/17) 11:49 PM EET (3/17)
Length of Visible Light 12h 52m
Length of Day
12h 01m
Waxing Crescent, 29% of the Moon is Illuminated
Mar 17
Waxing Crescent
Mar 19
First Quarter
Mar 27
Full
Apr 3
Last Quarter
Apr 10
New

Hourly Weather History & Observations

Time (EET) Temp. Windchill Dew Point Humidity Pressure Visibility Wind Dir Wind Speed Gust Speed Precip Events Conditions
12:20 AM 42.8 °F - 42.8 °F 100% 29.92 in 6.2 mi Variable 2.3 mph - N/A   Scattered Clouds
12:50 AM 42.8 °F 40.1 °F 42.8 °F 100% 29.92 in 6.2 mi NE 4.6 mph - N/A   Scattered Clouds
1:20 AM 42.8 °F 39.3 °F 41.0 °F 93% 29.92 in 6.2 mi NE 5.8 mph - N/A   Scattered Clouds
1:50 AM 42.8 °F 39.3 °F 42.8 °F 100% 29.92 in 6.2 mi East 5.8 mph - N/A   Scattered Clouds
2:00 AM 43 °F - 42 °F 97% 29.94 in 6 mi East 5.8 mph - -   Partly Cloudy
2:20 AM 42.8 °F 40.1 °F 42.8 °F 100% 29.92 in 6.2 mi ENE 4.6 mph - N/A   Scattered Clouds
2:50 AM 42.8 °F 41.1 °F 41.0 °F 93% 29.92 in 6.2 mi North 3.5 mph - N/A   Scattered Clouds
3:20 AM 42.8 °F - 41.0 °F 93% 29.92 in 6.2 mi Variable 2.3 mph - N/A   Scattered Clouds
3:50 AM 42.8 °F 40.1 °F 41.0 °F 93% 29.92 in 6.2 mi NE 4.6 mph - N/A   Scattered Clouds
4:20 AM 41.0 °F 38.0 °F 39.2 °F 93% 29.92 in 6.2 mi ENE 4.6 mph - N/A   Scattered Clouds
4:50 AM 42.8 °F 39.3 °F 41.0 °F 93% 29.92 in 6.2 mi NE 5.8 mph - N/A   Scattered Clouds
5:20 AM 42.8 °F - 41.0 °F 93% 29.92 in 6.2 mi Variable 2.3 mph - N/A   Scattered Clouds
5:50 AM 41.0 °F 38.0 °F 39.2 °F 93% 29.95 in 6.2 mi NW 4.6 mph - N/A   Partly Cloudy
6:20 AM 42.8 °F - 41.0 °F 93% 29.95 in 6.2 mi Variable 2.3 mph - N/A   Partly Cloudy
6:50 AM 41.0 °F 37.1 °F 39.2 °F 93% 29.95 in 6.2 mi North 5.8 mph - N/A   Partly Cloudy
7:20 AM 42.8 °F 40.1 °F 41.0 °F 93% 29.95 in 6.2 mi NNE 4.6 mph - N/A   Partly Cloudy
7:50 AM 46.4 °F - 42.8 °F 87% 29.98 in 6.2 mi Variable 2.3 mph - N/A   Partly Cloudy
8:00 AM 47 °F - 44 °F 83% 29.99 in 6 mi ENE 2.3 mph - -   Scattered Clouds
8:20 AM 48.2 °F - 44.6 °F 87% 29.98 in 6.2 mi NNE 9.2 mph - N/A   Partly Cloudy
8:50 AM 50.0 °F - 42.8 °F 76% 29.98 in 6.2 mi North 13.8 mph - N/A   Partly Cloudy
9:20 AM 51.8 °F - 41.0 °F 67% 29.98 in 6.2 mi North 10.4 mph - N/A   Partly Cloudy
9:50 AM 53.6 °F - 41.0 °F 62% 29.98 in 6.2 mi NNE 11.5 mph - N/A   Partly Cloudy
10:20 AM 55.4 °F - 37.4 °F 51% 29.98 in 6.2 mi NNW 11.5 mph - N/A   Partly Cloudy
10:50 AM 57.2 °F - 32.0 °F 38% 29.98 in 6.2 mi NNW 13.8 mph - N/A   Partly Cloudy
11:20 AM 59.0 °F - 32.0 °F 36% 29.98 in 6.2 mi NW 17.3 mph - N/A   Partly Cloudy
11:50 AM 59.0 °F - 30.2 °F 34% 29.98 in 6.2 mi North 12.7 mph - N/A   Partly Cloudy
12:20 PM 59.0 °F - 32.0 °F 36% 29.98 in 6.2 mi NNW 11.5 mph - N/A   Scattered Clouds
12:50 PM 57.2 °F - 35.6 °F 44% 29.98 in 6.2 mi North 12.7 mph - N/A   Scattered Clouds
1:20 PM 59.0 °F - 35.6 °F 42% 29.98 in 6.2 mi North 11.5 mph - N/A   Scattered Clouds
1:50 PM 59.0 °F - 28.4 °F 31% 29.98 in 6.2 mi North 12.7 mph - N/A   Scattered Clouds
2:00 PM 60 °F - 31 °F 22% 29.99 in 6 mi North 12.7 mph - -   Partly Cloudy
2:20 PM 57.2 °F - 28.4 °F 33% 29.98 in 6.2 mi NNW 13.8 mph - N/A   Scattered Clouds
2:50 PM 57.2 °F - 30.2 °F 36% 29.98 in 6.2 mi NNW 16.1 mph - N/A   Scattered Clouds
3:20 PM 57.2 °F - 28.4 °F 33% 29.98 in 6.2 mi NNW 16.1 mph - N/A   Scattered Clouds
3:50 PM 57.2 °F - 28.4 °F 33% 29.98 in 6.2 mi NNW 16.1 mph - N/A   Scattered Clouds
4:20 PM 57.2 °F - 28.4 °F 33% 29.98 in 6.2 mi NNW 16.1 mph - N/A   Scattered Clouds
4:50 PM 57.2 °F - 28.4 °F 33% 30.01 in 6.2 mi NW 13.8 mph - N/A   Scattered Clouds
5:20 PM 57.2 °F - 28.4 °F 33% 30.01 in 6.2 mi NNW 10.4 mph - N/A   Scattered Clouds
5:50 PM 55.4 °F - 30.2 °F 38% 30.01 in 6.2 mi NW 9.2 mph - N/A   Scattered Clouds
6:20 PM 53.6 °F - 30.2 °F 41% 30.01 in 6.2 mi NNW 9.2 mph - N/A   Scattered Clouds
6:50 PM 51.8 °F - 30.2 °F 44% 30.01 in 6.2 mi NW 10.4 mph - N/A   Partly Cloudy
7:20 PM 48.2 °F - 35.6 °F 62% 30.04 in 6.2 mi NE 6.9 mph - N/A   Partly Cloudy
7:50 PM 50.0 °F - 32.0 °F 50% 30.04 in 6.2 mi NNW 5.8 mph - N/A   Partly Cloudy
8:00 PM 50 °F - 33 °F 40% 30.06 in 6 mi NNW 5.8 mph - -   Scattered Clouds
8:20 PM 50.0 °F - 32.0 °F 50% 30.06 in - North 6.9 mph - N/A   Clear
8:50 PM 48.2 °F - 32.0 °F 54% 30.06 in - NNW 9.2 mph - N/A   Clear
9:20 PM 46.4 °F 42.9 °F 35.6 °F 66% 30.09 in - ENE 6.9 mph - N/A   Clear
9:50 PM 46.4 °F 42.4 °F 35.6 °F 66% 30.09 in - ENE 8.1 mph - N/A   Clear
10:20 PM 46.4 °F 41.5 °F 35.6 °F 66% 30.09 in - NE 10.4 mph - N/A   Clear
10:50 PM 44.6 °F 40.7 °F 35.6 °F 71% 30.09 in - NE 6.9 mph - N/A   Clear
11:20 PM 44.6 °F 43.1 °F 35.6 °F 71% 30.09 in - NE 3.5 mph - N/A   Clear
11:50 PM 46.4 °F 41.1 °F 32.0 °F 57% 30.09 in - NNW 11.5 mph - N/A   Clear